Regional Weather Roundup
Issued by NWS

Home | Current Version | Previous Version | Text Only | Print | Product List | Glossary Off
Versions: 1 2 3 4 5 6 7 8 9 10 11 12 13 14 15 16 17 18 19 20 21 22 23 24 25 26 27 28 29 30 31 32 33 34 35 36 37 38 39 40 41 42 43 44 45 46 47 48 49 50

000
ASUS43 KOAX 120102
RWRNE

WEATHER ROUNDUP FOR NEBRASKA
NATIONAL WEATHER SERVICE OMAHA NE
700 PM CST MON DEC 11 2017

NOTES: SATELLITE DATA IS BEING USED TO AUGMENT CLOUD COVER ABOVE
       12000 FEET.
       "FAIR" INDICATES FEW OR NO CLOUDS BELOW 12,000 FEET WITH NO
       SIGNIFICANT WEATHER AND/OR OBSTRUCTIONS TO VISIBILITY.


NEZ001>004-019>022-054>056-120200-
NEBRASKA PANHANDLE

CITY           SKY/WX    TMP DP  RH WIND       PRES   REMARKS
SCOTTSBLUFF    CLEAR     35  12  38 NW12      30.39R WCI  27
ALLIANCE       CLEAR     27  14  58 N8        30.37R WCI  19
CHADRON        CLEAR     31  15  52 CALM      30.40R
GORDON         FAIR      32  25  74 NW5       30.37R WCI  27
KIMBALL        CLEAR     32   9  37 W7        30.39R WCI  26
SIDNEY         CLEAR     35  12  38 NW12      30.38R WCI  27
$$

NEZ057>060-069>072-079>082-120200-
SOUTHWEST NEBRASKA

CITY           SKY/WX    TMP DP  RH WIND       PRES   REMARKS
NORTH PLATTE   CLEAR     29  22  75 NW6       30.36R WCI  23
IMPERIAL       CLEAR     38  19  46 N12       30.37R WCI  30
LEXINGTON      PTCLDY    38  28  65 N13       30.34R WCI  30
MCCOOK         CLEAR     40  25  55 N12       30.35R WCI  33
OGALLALA       CLEAR     34  20  57 N8        30.38R WCI  27
$$

NEZ005>010-023>029-035>040-094-120200-
NORTH CENTRAL NEBRASKA

CITY           SKY/WX    TMP DP  RH WIND       PRES   REMARKS
VALENTINE      CLOUDY    40  29  64 NW16      30.35R WCI  31
AINSWORTH      CLOUDY    35  34  95 N12       30.35R WCI  27
BROKEN BOW     CLOUDY    39  30  70 N18       30.32R WCI  30
O`NEILL        CLOUDY    37  26  65 N28G35    30.32R WCI  25
ORD            LGT RAIN  37  32  82 N21G32    30.31R WCI  26
THEDFORD       CLOUDY    40  29  66 N9G18     30.35R WCI  33
$$

NEZ041-046>049-061>064-073>077-083>087-120200-
SOUTH CENTRAL NEBRASKA

CITY           SKY/WX    TMP DP  RH WIND       PRES   REMARKS
GRAND ISLAND   CLOUDY    40  31  70 N23G30    30.31R WCI  30
AURORA         CLOUDY    40  29  65 N21G32    30.29R WCI  30
HASTINGS       CLOUDY    41  28  60 N22G33    30.30R
HEBRON         CLOUDY    43  32  64 N20G36    30.27R
HOLDREGE       CLOUDY    39  29  66 N12       30.33R WCI  32
KEARNEY        CLOUDY    40  29  64 N15       30.33R WCI  32
$$

NEZ011>018-030>034-042>045-120200-
NORTHEAST NEBRASKA

CITY           SKY/WX    TMP DP  RH WIND       PRES   REMARKS
NORFOLK        MOCLDY    36  29  75 N20G28    30.26R WCI  25
ALBION         CLOUDY    39  29  68 N18G28    30.29R WCI  29
BLAIR          CLEAR     36  26  68 NW23G30   30.20R WCI  24
COLUMBUS       MOCLDY    39  27  62 NW22G30   30.26R WCI  29
FREMONT        CLEAR     36  27  71 NW23G33   30.25R WCI  24
TEKAMAH        CLEAR     33  23  66 N16       30.23R WCI  23
WAYNE          CLEAR     32  23  70 N20G25    30.27R WCI  20
$$

NEZ050>053-065>068-078-088>093-120200-
SOUTHEAST NEBRASKA

CITY           SKY/WX    TMP DP  RH WIND       PRES   REMARKS
LINCOLN        MOCLDY    40  30  67 N12       30.26R WCI  33
OMAHA EPPLEY   PTCLDY    37  24  59 NW25G32   30.20R WCI  25
BEATRICE       CLOUDY    42  33  72 N18G25    30.24R
FALLS CITY     CLOUDY    41  28  60 NW25G39   30.17R
NEBRASKA CITY  MOCLDY    39  28  66 N22G28    30.19R WCI  28
PLATTSMOUTH    PTCLDY    37  27  67 NW24G32   30.20R WCI  26
$$

NEZ044-045-051>053-067-120200-
OMAHA AREA

CITY           SKY/WX    TMP DP  RH WIND       PRES   REMARKS
OMAHA EPPLEY   PTCLDY    37  24  59 NW25G32   30.20R WCI  25
BLAIR          CLEAR     36  26  68 NW23G30   30.20R WCI  24
FREMONT        CLEAR     36  27  71 NW23G33   30.25R WCI  24
MILLARD        PTCLDY    39  27  62 NW12G29   30.23R WCI  31
OFFUTT AFB     PTCLDY    38  25  59 N15G29    30.21R WCI  29
PLATTSMOUTH    PTCLDY    37  27  67 NW24G32   30.20R WCI  26
WAHOO          FAIR      35  27  72 N16       30.24R WCI  25
$$



USA.gov is the U.S. government's official web portal to all federal, state and local government web resources and services.